This demonstration page uses our WeatherBlox Daily Observations layout. Learn more.

Left ArrowRight Arrow

Hourly Observations for October 6, 2015

Temp ( °F °C ) Dew Point ( °F °C ) Humidity (%) Winds ( mph kmh ) Pressure ( in mb ) Visibility ( mi km ) Precip ( " mm )
12:15 am 00:15 Clear 50 10 50 10 100 100 N N/A 30.15 1021 10 16 N/A
12:35 am 00:35 Clear 50 10 50 10 100 100 N N/A 30.15 1021 10 16 N/A
12:55 am 00:55 Clear 48 9 48 9 100 100 N N/A 30.15 1021 10 16 N/A
1:15 am 01:15 Clear 48 9 48 9 100 100 N N/A 30.15 1021 10 16 N/A
1:35 am 01:35 Clear 48 9 48 9 100 100 N N/A 30.15 1021 10 16 N/A
1:55 am 01:55 Clear 46 8 46 8 100 100 N N/A 30.15 1021 10 16 N/A
2:15 am 02:15 Clear 46 8 46 8 100 100 N N/A 30.15 1021 10 16 N/A
2:35 am 02:35 Clear 46 8 46 8 100 100 N N/A 30.12 1020 10 16 N/A
2:55 am 02:55 Clear 46 8 46 8 100 100 N N/A 30.12 1020 10 16 N/A
3:15 am 03:15 Clear 46 8 46 8 100 100 N N/A 30.12 1020 10 16 N/A
3:35 am 03:35 Clear 46 8 46 8 100 100 N N/A 30.12 1020 10 16 N/A
3:55 am 03:55 Clear 45 7 45 7 100 100 N N/A 30.12 1020 10 16 N/A
4:15 am 04:15 Clear 45 7 45 7 100 100 N N/A 30.12 1020 10 16 N/A
4:35 am 04:35 Clear 45 7 45 7 100 100 NNW 5 7 30.12 1020 10 16 N/A
4:55 am 04:55 Clear 45 7 45 7 100 100 NNW 3 6 30.12 1020 10 16 N/A
5:15 am 05:15 Clear 45 7 45 7 100 100 NNW 3 6 30.12 1020 10 16 N/A
5:35 am 05:35 Clear 45 7 45 7 100 100 N N/A 30.12 1020 10 16 N/A
5:55 am 05:55 Clear 45 7 45 7 100 100 N N/A 30.12 1020 10 16 N/A
6:15 am 06:15 Clear 45 7 45 7 100 100 N N/A 30.15 1021 10 16 N/A
6:35 am 06:35 Clear 43 6 43 6 100 100 N N/A 30.15 1021 10 16 N/A
6:55 am 06:55 Clear 45 7 45 7 100 100 N N/A 30.15 1021 10 16 N/A
7:15 am 07:15 Sunny 45 7 45 7 100 100 N N/A 30.15 1021 10 16 N/A
7:35 am 07:35 Sunny 45 7 45 7 100 100 N N/A 30.15 1021 10 16 N/A
7:55 am 07:55 Sunny 46 8 46 8 100 100 N N/A 30.15 1021 10 16 N/A
8:15 am 08:15 Sunny 50 10 50 10 100 100 N N/A 30.15 1021 10 16 N/A
8:35 am 08:35 Sunny 52 11 52 11 100 100 N N/A 30.12 1020 10 16 N/A
8:55 am 08:55 Sunny 54 12 52 11 94 94 NNW 3 6 30.12 1020 10 16 N/A
9:15 am 09:15 Sunny 55 13 54 12 94 94 NW 5 7 30.12 1020 10 16 N/A
9:35 am 09:35 Sunny 59 15 54 12 82 82 N N/A 30.12 1020 10 16 N/A
9:55 am 09:55 Sunny 61 16 54 12 77 77 N N/A 30.12 1020 10 16 N/A
10:15 am 10:15 Sunny 63 17 54 12 73 73 NNW 3 6 30.12 1020 10 16 N/A
10:35 am 10:35 Sunny 64 18 54 12 68 68 NW 5 7 30.12 1020 10 16 N/A
10:55 am 10:55 Sunny 64 18 54 12 68 68 NNW 5 7 30.12 1020 10 16 N/A
11:15 am 11:15 Sunny 66 19 54 12 64 64 N 5 7 30.09 1019 10 16 N/A
11:35 am 11:35 Sunny 68 20 52 11 56 56 N 3 6 30.09 1019 10 16 N/A
11:55 am 11:55 Sunny 70 21 52 11 53 53 N 6 9 30.09 1019 10 16 N/A
12:15 pm 12:15 Sunny 70 21 52 11 53 53 NNW 3 6 30.09 1019 10 16 N/A
12:35 pm 12:35 Sunny 70 21 50 10 50 50 NE 5 7 30.09 1019 10 16 N/A
12:55 pm 12:55 Sunny 72 22 50 10 47 47 NNW 6 9 30.09 1019 10 16 N/A
1:15 pm 13:15 Sunny 72 22 50 10 47 47 N N/A 30.06 1018 10 16 N/A
1:35 pm 13:35 Sunny 72 22 50 10 47 47 NNW 6 9 30.06 1018 10 16 N/A
1:55 pm 13:55 Sunny 73 23 50 10 44 44 N 5 7 30.06 1018 7 11 N/A
2:15 pm 14:15 Sunny 73 23 50 10 44 44 NNW 6 9 30.06 1018 10 16 N/A
2:35 pm 14:35 Sunny 73 23 50 10 44 44 NW 5 7 30.03 1017 10 16 N/A
2:55 pm 14:55 Sunny 73 23 50 10 44 44 W 3 6 30.03 1017 10 16 N/A
3:15 pm 15:15 Sunny 73 23 50 10 44 44 NNW 8 13 30.03 1017 7 11 N/A
3:35 pm 15:35 Sunny 73 23 50 10 44 44 NW 7 11 30.03 1017 10 16 N/A
3:55 pm 15:55 Sunny 75 24 52 11 44 44 WNW 3 6 30.03 1017 10 16 N/A
4:15 pm 16:15 Sunny 73 23 52 11 47 47 NW 8 13 30.03 1017 10 16 N/A
4:35 pm 16:35 Sunny 73 23 54 12 50 50 NW 6 9 30.03 1017 10 16 N/A
4:55 pm 16:55 Sunny 73 23 54 12 50 50 NW 7 11 30.03 1017 10 16 N/A
5:15 pm 17:15 Sunny 72 22 55 13 57 57 NW 6 9 30.03 1017 10 16 N/A
5:35 pm 17:35 Sunny 73 23 57 14 57 57 NW 7 11 30.03 1017 10 16 N/A
5:55 pm 17:55 Sunny 72 22 55 13 57 57 NW 7 11 30.03 1017 10 16 N/A
6:15 pm 18:15 Sunny 72 22 55 13 57 57 WNW 6 9 30.03 1017 10 16 N/A
6:35 pm 18:35 Sunny 70 21 55 13 60 60 N N/A 30.00 1016 10 16 N/A
6:55 pm 18:55 Clear 66 19 57 14 73 73 N N/A 30.00 1016 10 16 N/A
7:15 pm 19:15 Clear 64 18 57 14 78 78 N N/A 30.00 1016 10 16 N/A
7:35 pm 19:35 Clear 64 18 57 14 78 78 N N/A 30.00 1016 10 16 N/A
7:55 pm 19:55 Clear 61 16 59 15 94 94 W 3 6 30.00 1016 10 16 N/A
8:15 pm 20:15 Clear 61 16 59 15 94 94 W 3 6 30.00 1016 10 16 N/A
8:35 pm 20:35 Clear 61 16 59 15 94 94 N N/A 30.03 1017 10 16 N/A
8:55 pm 20:55 Clear 61 16 59 15 94 94 N N/A 30.00 1016 10 16 N/A
9:15 pm 21:15 Clear 61 16 57 14 88 88 N N/A 30.00 1016 10 16 N/A
9:35 pm 21:35 Clear 59 15 57 14 94 94 N N/A 30.00 1016 10 16 N/A
9:55 pm 21:55 Clear 61 16 57 14 88 88 SW 3 6 30.00 1016 10 16 N/A
10:15 pm 22:15 Clear 61 16 57 14 88 88 N N/A 30.00 1016 10 16 N/A
10:35 pm 22:35 Clear 59 15 55 13 88 88 N N/A 30.00 1016 10 16 N/A
10:55 pm 22:55 Clear 57 14 55 13 94 94 N N/A 30.03 1017 10 16 N/A
11:15 pm 23:15 Clear 57 14 55 13 94 94 SW 5 7 30.03 1017 10 16 N/A
11:35 pm 23:35 Clear 59 15 55 13 88 88 N N/A 30.03 1017 10 16 N/A
11:55 pm 23:55 Clear 55 13 55 13 100 100 WSW 5 7 30.00 1016 10 16 N/A

Powered by AerisWeather